Weather History for Corpus Christi, TX

Change the Weather History Date:

Tuesday, August 27, 2013

  Actual Average Record
Temperature  
Mean Temperature 85 °F 84 °F  
Max Temperature 94 °F 94 °F 102 °F (1990)
Min Temperature 76 °F 75 °F 69 °F (1958)
Degree Days  
Heating Degree Days 0 0  
Month to date heating degree days 0 0  
Since 1 June heating degree days 0 0  
Since 1 July heating degree days 0 0  
Cooling Degree Days 20 19  
Month to date cooling degree days 595 537  
Year to date cooling degree days 2928 2487  
Since 1 June cooling degree days 1910 1646  
Growing Degree Days 34 (Base 50)    
Moisture  
Dew Point 74 °F    
Average Humidity 67    
Maximum Humidity 85    
Minimum Humidity 49    
Precipitation  
Precipitation 0.06 in 0.13 in 1.84 in (1887)
Month to date precipitation 1.21 2.32  
Year to date precipitation 11.01 18.74  
Snow  
Snow 0.00 in - - ()
Month to date snowfall 0.0  
Since 1 June snowfall 0.0  
Since 1 July snowfall 0.0  
Snow Depth 0.00 in    
Sea Level Pressure  
Sea Level Pressure 30.02 in    
Wind  
Wind Speed 9 mph (ESE)    
Max Wind Speed 20 mph    
Max Gust Speed 26 mph    
Visibility 10 miles    
Events Rain    
T = Trace of Precipitation, MM = Missing Value Source: NWS Daily Summary

Daily Weather History Graph

Daily Weather History Graph

Search for Another Location

Airport:

Trip Planner

Search our weather history database for the weather conditions in past years. The results will help you decide how hot, cold, wet, or windy it might be!

Date:

Astronomy

Aug. 27, 2013 Rise Set
Actual Time 7:06 AM CDT 7:55 PM CDT
Civil Twilight 6:42 AM CDT 8:19 PM CDT
Nautical Twilight 6:14 AM CDT 8:48 PM CDT
Astronomical Twilight 5:45 AM CDT 9:16 PM CDT
Moon No Moon Rise 1:27 PM CDT (8/27)
Length of Visible Light 13h 37m
Length of Day
12h 49m
Waning Gibbous, 57% of the Moon is Illuminated
Aug 27
Waning Gibbous
Aug 28
Last Quarter
Sep 5
New
Sep 12
First Quarter
Sep 19
Full

Hourly Weather History & Observations

Time (CDT) Temp. Heat Index Dew Point Humidity Pressure Visibility Wind Dir Wind Speed Gust Speed Precip Events Conditions
12:51 AM 79.0 °F - 73.9 °F 84% 30.02 in 10.0 mi ESE 5.8 mph - N/A   Partly Cloudy
1:51 AM 80.1 °F 85.1 °F 75.0 °F 85% 30.01 in 10.0 mi East 5.8 mph - N/A   Partly Cloudy
2:47 AM 80.6 °F 86.2 °F 75.2 °F 84% 30.02 in 8.0 mi SE 19.6 mph 26.5 mph 0.00 in Rain Heavy Rain
2:51 AM 78.1 °F - 73.0 °F 84% 30.02 in 10.0 mi SE 17.3 mph 26.5 mph 0.04 in Rain Rain
3:14 AM 77.0 °F - 69.8 °F 78% 30.00 in 10.0 mi SSE 8.1 mph - 0.01 in Rain Light Rain
3:51 AM 77.0 °F - 72.0 °F 84% 29.99 in 10.0 mi ESE 4.6 mph - 0.01 in   Mostly Cloudy
4:51 AM 79.0 °F - 73.9 °F 84% 29.99 in 10.0 mi ESE 4.6 mph - 0.01 in Rain Light Rain
5:51 AM 78.1 °F - 75.0 °F 90% 29.99 in 10.0 mi Calm Calm - 0.00 in   Partly Cloudy
6:51 AM 80.1 °F 85.4 °F 75.9 °F 87% 30.01 in 10.0 mi East 3.5 mph - N/A   Partly Cloudy
7:51 AM 80.1 °F 85.4 °F 75.9 °F 87% 30.03 in 9.0 mi ESE 3.5 mph - N/A   Partly Cloudy
8:51 AM 82.0 °F 90.2 °F 77.0 °F 85% 30.05 in 10.0 mi East 5.8 mph - N/A   Scattered Clouds
9:51 AM 86.0 °F 96.9 °F 77.0 °F 74% 30.06 in 10.0 mi East 4.6 mph - N/A   Scattered Clouds
10:51 AM 89.1 °F 100.2 °F 75.9 °F 65% 30.06 in 10.0 mi SE 17.3 mph - N/A   Scattered Clouds
11:51 AM 89.1 °F 99.1 °F 75.0 °F 63% 30.06 in 10.0 mi SSE 12.7 mph - N/A   Scattered Clouds
12:51 PM 88.0 °F 97.5 °F 75.0 °F 65% 30.05 in 10.0 mi ESE 16.1 mph - 0.00 in   Scattered Clouds
1:51 PM 89.1 °F 98.0 °F 73.9 °F 61% 30.05 in 10.0 mi SE 15.0 mph - N/A   Scattered Clouds
2:51 PM 93.0 °F 101.9 °F 73.0 °F 52% 30.03 in 10.0 mi SE 11.5 mph - N/A   Scattered Clouds
3:51 PM 91.9 °F 99.5 °F 72.0 °F 52% 30.01 in 10.0 mi SE 11.5 mph - N/A   Scattered Clouds
4:51 PM 91.0 °F 98.2 °F 72.0 °F 53% 30.01 in 10.0 mi ESE 10.4 mph 18.4 mph N/A   Partly Cloudy
5:51 PM 91.0 °F 96.6 °F 70.0 °F 50% 30.01 in 10.0 mi ESE 15.0 mph - N/A   Partly Cloudy
6:51 PM 88.0 °F 92.9 °F 70.0 °F 55% 30.01 in 10.0 mi ESE 15.0 mph - N/A   Partly Cloudy
7:51 PM 84.9 °F 92.1 °F 73.9 °F 69% 30.01 in 10.0 mi ESE 9.2 mph - N/A   Partly Cloudy
8:51 PM 82.9 °F 90.2 °F 75.0 °F 77% 30.01 in 10.0 mi ESE 6.9 mph - N/A   Partly Cloudy
9:51 PM 82.0 °F 89.4 °F 75.9 °F 82% 30.02 in 10.0 mi SE 5.8 mph - N/A   Partly Cloudy
10:51 PM 81.0 °F 87.3 °F 75.9 °F 85% 30.02 in 10.0 mi ESE 5.8 mph - N/A   Partly Cloudy
11:51 PM 81.0 °F 86.7 °F 75.0 °F 82% 30.02 in 10.0 mi ESE 5.8 mph - N/A   Partly Cloudy